Location: Roland
(31.1349°N, 85.4372°W)
Time: 22:28:05
(UTC+00:00)

Tiros 1 - Pass Details

Date: 18 April 2021
Orbit: 630 x 664 km, 48.4° (Epoch: 05 May)

Event Time Altitude Azimuth Distance (km) Brightness Sun altitude
Rises 17:07:20 0° 291° (WNW) 2,924 10.4 68.5°
Reaches altitude 10° 17:11:19 10° 325° (NW) 2,011 9.6 68.8°
Maximum altitude 17:12:53 12° 345° (NNW) 1,909 9.5 68.9°
Drops below altitude 10° 17:14:27 10° 5° (N) 2,008 9.6 69.0°
Sets 17:18:26 0° 39° (NE) 2,915 10.4 69.3°
